Hickory, NC

10:26 AM EDT on April 30, 2017 (GMT -0400)
Hickory Regional

Weather History for KHKY - July, 2014

Change the Weather History Date:

Saturday, July 12, 2014

  Actual Average Record
Temperature  
Mean Temperature 78 °F -  
Max Temperature 89 °F 87 °F 98 °F (1993)
Min Temperature 68 °F 68 °F 56 °F (1953)
Cooling Degree Days 13    
Growing Degree Days 28 (Base 50)    
Moisture  
Dew Point 66 °F    
Average Humidity 71    
Maximum Humidity 96    
Minimum Humidity 43    
Precipitation  
Precipitation 0.00 in - - ()
Sea Level Pressure  
Sea Level Pressure 30.16 in    
Wind  
Wind Speed 2 mph (SSW)    
Max Wind Speed 8 mph    
Max Gust Speed -    
Visibility 9 miles    
Events      
Averages and records for this station are not official NWS values.
T = Trace of Precipitation, MM = Missing Value Source: NWS Daily Summary

Daily Weather History Graph

Daily Weather History Graph

Search for Another Location

Airport or City:

Trip Planner

Search our weather history database for the weather conditions in past years. The results will help you decide how hot, cold, wet, or windy it might be!

Date:

Astronomy

Jul. 12, 2014 Rise Set
Actual Time 6:19 AM EDT 8:43 PM EDT
Civil Twilight 5:49 AM EDT 9:12 PM EDT
Nautical Twilight 5:13 AM EDT 9:48 PM EDT
Astronomical Twilight 4:33 AM EDT 10:28 PM EDT
Moon 8:47 PM EDT (7/12) 6:34 AM EDT (7/12)
Length of Visible Light 15h 22m
Length of Day
14h 23m
Full, 100% of the Moon is Illuminated
Jul 12
Full
Jul 18
Last Quarter
Jul 26
New
Aug 3
First Quarter
Aug 10
Full

Hourly Weather History & Observations

Time (EDT) Temp. Heat Index Dew Point Humidity Pressure Visibility Wind Dir Wind Speed Gust Speed Precip Events Conditions
12:53 AM 73.0 °F - 68.0 °F 84% 30.17 in 10.0 mi South 3.5 mph - N/A   Clear
1:53 AM 72.0 °F - 68.0 °F 87% 30.17 in 10.0 mi Calm Calm - N/A   Scattered Clouds
2:53 AM 71.1 °F - 68.0 °F 90% 30.16 in 9.0 mi Calm Calm - N/A   Mostly Cloudy
3:23 AM 71.6 °F - 68.0 °F 88% 30.23 in 10.0 mi Calm Calm - N/A   Mostly Cloudy
3:53 AM 71.1 °F - 68.0 °F 90% 30.16 in 9.0 mi Calm Calm - N/A   Clear
4:53 AM 70.0 °F - 68.0 °F 93% 30.16 in 8.0 mi Calm Calm - N/A   Clear
5:53 AM 69.1 °F - 66.9 °F 93% 30.17 in 6.0 mi Calm Calm - N/A   Clear
6:53 AM 68.0 °F - 66.9 °F 96% 30.18 in 4.0 mi Calm Calm - N/A   Clear
7:53 AM 71.1 °F - 69.1 °F 93% 30.18 in 3.0 mi Calm Calm - N/A   Clear
8:00 AM 71.6 °F - 69.8 °F 94% 30.25 in 2.0 mi Calm Calm - N/A   Clear
8:35 AM 73.4 °F - 69.8 °F 88% 30.24 in 6.0 mi Calm Calm - N/A   Clear
8:53 AM 75.0 °F - 69.1 °F 82% 30.18 in 9.0 mi Calm Calm - N/A   Partly Cloudy
9:53 AM 77.0 °F - 70.0 °F 79% 30.19 in 10.0 mi WSW 3.5 mph - N/A   Scattered Clouds
10:35 AM 78.8 °F - 66.2 °F 65% 30.26 in 10.0 mi WSW 3.5 mph - N/A   Mostly Cloudy
10:53 AM 80.1 °F 82.7 °F 68.0 °F 67% 30.19 in 10.0 mi Calm Calm - N/A   Scattered Clouds
11:53 AM 82.9 °F 85.4 °F 66.9 °F 58% 30.19 in 10.0 mi Variable 6.9 mph - N/A   Mostly Cloudy
1:53 PM 86.0 °F 87.6 °F 64.9 °F 49% 30.17 in 10.0 mi SE 3.5 mph - N/A   Clear
2:53 PM 88.0 °F 89.6 °F 64.9 °F 46% 30.14 in 10.0 mi Variable 3.5 mph - N/A   Clear
3:53 PM 86.0 °F 86.8 °F 63.0 °F 46% 30.14 in 10.0 mi Variable 5.8 mph - N/A   Scattered Clouds
4:53 PM 88.0 °F 88.7 °F 63.0 °F 43% 30.12 in 10.0 mi South 8.1 mph - N/A   Mostly Cloudy
5:53 PM 87.1 °F 87.8 °F 63.0 °F 44% 30.10 in 10.0 mi South 5.8 mph - N/A   Partly Cloudy
6:53 PM 84.9 °F 85.9 °F 63.0 °F 48% 30.10 in 10.0 mi South 4.6 mph - N/A   Overcast
7:53 PM 84.0 °F 84.9 °F 63.0 °F 49% 30.09 in 10.0 mi South 3.5 mph - N/A   Overcast
8:53 PM 80.1 °F 81.9 °F 64.9 °F 60% 30.10 in 10.0 mi Calm Calm - N/A   Scattered Clouds
9:53 PM 80.1 °F 81.2 °F 62.1 °F 54% 30.10 in 10.0 mi South 4.6 mph - N/A   Mostly Cloudy
10:53 PM 75.9 °F - 63.0 °F 64% 30.11 in 10.0 mi Calm Calm - N/A   Clear
11:53 PM 75.9 °F - 63.0 °F 64% 30.10 in 10.0 mi SW 3.5 mph - N/A   Clear